Other Surface Observations
Issued by NWS

Home | Current Version | Previous Version | Text Only | Print | Product List | Glossary On
Versions: 1 2 3 4 5 6 7 8 9 10 11 12 13 14 15 16 17 18 19 20 21 22 23 24 25 26 27 28 29 30 31 32 33 34 35 36 37 38 39 40 41 42 43 44 45 46 47 48 49 50
000
SXUS52 KTAE 181718
OSOTAE
OSOTAE
North Florida/South Alabama/Southwest Georgia Weather Roundup
National Weather Service Tallahassee Florida
1200 PM EST THU JAN 18 2018

Note: "fair" indicates few or no clouds below 12,000 feet with no
significant weather and/or obstructions to visibility.

!FLZ017-115-028-034-025-181800
...North Florida...

CITY           SKY/WX    TMP DP  RH WIND       PRES   REMARKS
TALLAHASSEE    FAIR      38  13  35 VRB7      30.46F WCI  33
APALACHICOLA   FAIR      40  14  34 VRB5      30.47F WCI  37
PERRY          FAIR      40  13  34 N5        30.46F WCI  36
CROSS CITY     FAIR      39  15  38 N7        30.49F WCI  34
JACKSONVILLE   FAIR      43  11  27 NW7       30.42F WCI  39
$$

!FLZ112-006-005-002-011-181800
...Florida Panhandle...

CITY           SKY/WX    TMP DP  RH WIND       PRES   REMARKS
MARIANNA       FAIR      37  10  32 NE9       30.48F WCI  30
BONIFAY        NOT AVBL
PANAMA CITY NW FAIR      39  12  33 N13       30.47F WCI  31
TYNDALL AFB    FAIR      39  13  33 N8        30.47F WCI  34
TYND DRONE APT FAIR      40  13  33 N9        30.47F WCI  34
DE FUNIAK SPR  FAIR      35  10  35 N7        30.50F WCI  29
EGLIN AFB      SUNNY     38   9  30 NE10      30.49F WCI  31
DESTIN         FAIR      40  13  33 N10       30.50F WCI  33
HURLBURT       SUNNY     39  11  32 N13       30.49F WCI  31
CRESTVIEW      FAIR      38  11  32 MISG      30.52F
PENSACOLA      FAIR      36  13  38 N15       30.52F WCI  27
$$

!ALZ063-066-181800
...South Alabama...

CITY           SKY/WX    TMP DP  RH WIND       PRES   REMARKS
DOTHAN         SUNNY     36   9  32 MISG      30.50
OZARK CAIRNS   FAIR      37   7  29 N8        30.48F WCI  30
FT RUCKER HELI FAIR      37  10  32 NW8       30.47F WCI  31
RUCKER HELI 3    N/A     35   9  34 N7        30.48F WCI  29
RUCKER HELI 2  FAIR      37   9  30 CALM      30.46F
FLORALA APT    FAIR      37  10  32 NE9       30.52F WCI  30
ANDALUSIA      FAIR      38  10  31 VRB5      30.50F WCI  34
TROY           FAIR      34  13  41 NW7       30.50F WCI  28
EUFALA         FAIR      36  12  37 VRB6      30.48F WCI  31
MOBILE         FAIR      35  11  36 N9        30.57F WCI  28
$$

!GAZ120>161-181800
...Southwest and South Central Georgia...

CITY           SKY/WX    TMP DP  RH WIND       PRES   REMARKS
THOMASVILLE    FAIR      36  14  41 N8        30.46F WCI  29
BAINBRIDGE     FAIR      37  18  44 N5        30.49F WCI  34
MOODY AFB      FAIR      38  13  35 N5        30.43F WCI  35
VALDOSTA       FAIR      38  14  37 VRB6      30.44F WCI  33
MOULTRIE       FAIR      36  14  41 NW6       30.45F WCI  31
BLAKELY        NOT AVBL
ALBANY         FAIR      37  12  35 VRB3      30.48F
TIFTON         FAIR      35  13  40 NW5       30.44F WCI  31
FITZGERALD     FAIR      37  13  37 CALM      30.46F
CORDELE        FAIR      39  11  31 NW3       30.47F
AMERICUS       FAIR      36   1  23 NE6       30.46F WCI  31
HOMERVILLE     FAIR      37  12  35 N8        30.44F WCI  31
$$

!GMZ750-755-770-775-181800
...Coastal and Buoy Obs...

STATION/POSITION TIME  TEMP    WIND        PRES    VSBY  WAVE
                       AIR SEA DIR/SP/G                  HT/PER
                 (UTC) (F)     (DEG/KT/KT) (MB)    (MI)  (FT/S)
KEATON BEACH     1700   38      20/  5/  7 1030.5F
CEDAR KEY        1700   37      70/  7/  9 1030.4F
C TOWER          1700   34      20/ 10/ 13 1031.8F
APALACHICOLA BUO NOT AVBL
PANAMA CITY BUOY 1650   45 69   30/ 14/ 16 1031.1F         4/ 5
MOBILE BUOY      1700   43 69   30/ 12/ 16 1034.1
ORANGE BCH AL BU NOT AVBL
$$




USA.gov is the U.S. government's official web portal to all federal, state and local government web resources and services.